EWG86P LEPA-EDDK

Flight info

Callsign EWG86P
Flight time 2h 4m
Altitude 30000
Route MEROS DCT LAPIT DCT CHELY DCT LUMAS DCT NEVIX DCT ODIXU DCT MAXIR DCT LUSOL DCT BODRU DCT OKTET DCT IRMAR DCT KINES DCT VANAS DCT MOBLO DCT UBIMA DCT GILIR DCT PENDU DCT IXILU DCT GIVOR DCT SORAL DCT IBERA N853 ARCKY T853 IBESA T860 ERUKI T856 DEPOK
Aircraft A320/M-SDE3FGHIRWY/LB1

Departure

Time 2026-04-22 17:38
Airport Palma de Mallorca Airport (LEPA)

Arrival

Time 2026-04-22 19:42
Airport Cologne Bonn Airport (EDDK)
Time Latitude Longitude Altitude Speed Heading
2026-04-22 17:01 39.54758 2.73632 38 ft 0 kts 58°
2026-04-22 17:27 39.54746 2.73607 36 ft 4 kts 64°
2026-04-22 17:27 39.54737 2.73575 37 ft 4 kts 90°
2026-04-22 17:28 39.54743 2.73551 36 ft 1 kts 149°
2026-04-22 17:28 39.54744 2.73551 36 ft 0 kts 149°
2026-04-22 17:30 39.54743 2.73552 36 ft 1 kts 149°
2026-04-22 17:30 39.54718 2.73571 38 ft 7 kts 149°
2026-04-22 17:30 39.54667 2.73613 38 ft 9 kts 140°
2026-04-22 17:31 39.54664 2.73679 38 ft 8 kts 63°
2026-04-22 17:31 39.54694 2.73748 38 ft 10 kts 59°
2026-04-22 17:31 39.54733 2.73834 38 ft 12 kts 59°
2026-04-22 17:31 39.54784 2.73934 38 ft 14 kts 59°
2026-04-22 17:32 39.54857 2.73992 38 ft 13 kts 340°
2026-04-22 17:32 39.54933 2.73976 38 ft 10 kts 46°
2026-04-22 17:32 39.54982 2.74002 35 ft 8 kts 341°
2026-04-22 17:32 39.55043 2.73955 37 ft 12 kts 329°
2026-04-22 17:33 39.55098 2.73913 38 ft 15 kts 328°
2026-04-22 17:33 39.55228 2.73809 38 ft 18 kts 328°
2026-04-22 17:33 39.55339 2.73721 38 ft 19 kts 329°
2026-04-22 17:33 39.55449 2.73634 38 ft 18 kts 328°
2026-04-22 17:34 39.55548 2.73556 38 ft 16 kts 329°
2026-04-22 17:34 39.55648 2.73510 38 ft 15 kts 18°
2026-04-22 17:34 39.55707 2.73611 38 ft 13 kts 59°
2026-04-22 17:34 39.55752 2.73706 38 ft 12 kts 58°
2026-04-22 17:35 39.55792 2.73791 38 ft 12 kts 59°
2026-04-22 17:35 39.55838 2.73888 38 ft 12 kts 58°
2026-04-22 17:35 39.55880 2.73977 38 ft 12 kts 58°
2026-04-22 17:35 39.55931 2.74085 38 ft 16 kts 58°
2026-04-22 17:36 39.55998 2.74224 38 ft 19 kts 55°
2026-04-22 17:36 39.56100 2.74309 38 ft 16 kts 27°
2026-04-22 17:36 39.56195 2.74343 38 ft 13 kts 339°
2026-04-22 17:36 39.56219 2.74249 38 ft 13 kts 240°
2026-04-22 17:37 39.56169 2.74142 36 ft 18 kts 238°
2026-04-22 17:37 39.56007 2.73799 37 ft 79 kts 238°
2026-04-22 17:37 39.55612 2.72963 38 ft 136 kts 238°
2026-04-22 17:37 39.55049 2.71761 226 ft 164 kts 239°
2026-04-22 17:38 39.54456 2.70479 825 ft 167 kts 238°
2026-04-22 17:38 39.53841 2.69174 1427 ft 172 kts 237°
2026-04-22 17:38 39.53203 2.67840 1956 ft 178 kts 238°
2026-04-22 17:38 39.52516 2.66399 2235 ft 198 kts 238°
2026-04-22 17:39 39.51756 2.64803 2514 ft 217 kts 238°
2026-04-22 17:39 39.50949 2.63103 3019 ft 225 kts 238°
2026-04-22 17:39 39.48906 2.60056 4161 ft 240 kts 207°
2026-04-22 17:40 39.47327 2.59181 4670 ft 254 kts 205°
2026-04-22 17:40 39.45658 2.58206 5118 ft 270 kts 207°
2026-04-22 17:40 39.43947 2.57134 5824 ft 276 kts 204°
2026-04-22 17:40 39.42055 2.56695 6563 ft 283 kts 174°
2026-04-22 17:41 39.40224 2.57615 7279 ft 289 kts 143°
2026-04-22 17:41 39.38793 2.59465 8023 ft 294 kts 132°
2026-04-22 17:41 39.37354 2.61349 8791 ft 296 kts 136°
2026-04-22 17:41 39.35933 2.63306 9517 ft 301 kts 133°
2026-04-22 17:42 39.34478 2.65268 10201 ft 306 kts 137°
2026-04-22 17:42 39.32879 2.67235 10411 ft 329 kts 139°
2026-04-22 17:42 39.31740 2.68589 10516 ft 344 kts 138°
2026-04-22 17:42 39.29276 2.71505 10686 ft 374 kts 137°
2026-04-22 17:43 39.27563 2.74112 10931 ft 389 kts 117°
2026-04-22 17:43 39.26924 2.76273 11256 ft 392 kts 101°
2026-04-22 17:43 39.26645 2.79777 11824 ft 395 kts 91°
2026-04-22 17:43 39.26592 2.83335 12422 ft 398 kts 88°
2026-04-22 17:44 39.26784 2.86905 13000 ft 400 kts 77°
2026-04-22 17:44 39.27501 2.90366 13572 ft 402 kts 67°
2026-04-22 17:44 39.28628 2.93678 14120 ft 403 kts 59°
2026-04-22 17:44 39.30016 2.96830 14647 ft 406 kts 57°
2026-04-22 17:45 39.31420 3.00014 15184 ft 409 kts 57°
2026-04-22 17:45 39.32833 3.03230 15678 ft 414 kts 58°
2026-04-22 17:45 39.34258 3.06475 16199 ft 418 kts 58°
2026-04-22 17:45 39.35702 3.09751 16738 ft 421 kts 58°
2026-04-22 17:46 39.37157 3.13048 17256 ft 424 kts 58°
2026-04-22 17:46 39.38627 3.16379 17757 ft 428 kts 58°
2026-04-22 17:46 39.40109 3.19735 18248 ft 432 kts 58°
2026-04-22 17:46 39.41605 3.23122 18673 ft 435 kts 58°
2026-04-22 17:47 39.43114 3.26532 19103 ft 437 kts 58°
2026-04-22 17:47 39.44650 3.29936 19533 ft 440 kts 57°
2026-04-22 17:47 39.46218 3.33341 19954 ft 442 kts 56°
2026-04-22 17:47 39.47810 3.36759 20369 ft 444 kts 56°
2026-04-22 17:48 39.49384 3.40138 20768 ft 446 kts 56°
2026-04-22 17:48 39.50983 3.43589 21152 ft 448 kts 56°
2026-04-22 17:48 39.52583 3.47060 21540 ft 450 kts 56°
2026-04-22 17:48 39.54186 3.50556 21911 ft 452 kts 57°
2026-04-22 17:49 39.55792 3.54069 22270 ft 454 kts 57°
2026-04-22 17:49 39.57408 3.57604 22618 ft 456 kts 56°
2026-04-22 17:49 39.59027 3.61151 22960 ft 458 kts 56°
2026-04-22 17:49 39.60653 3.64716 23303 ft 460 kts 56°
2026-04-22 17:50 39.62284 3.68300 23628 ft 462 kts 57°
2026-04-22 17:50 39.63918 3.71900 23904 ft 464 kts 57°
2026-04-22 17:50 39.65559 3.75512 24171 ft 466 kts 57°
2026-04-22 17:50 39.67213 3.79143 24433 ft 468 kts 57°
2026-04-22 17:51 39.68871 3.82781 24706 ft 469 kts 57°
2026-04-22 17:51 39.70531 3.86437 24967 ft 471 kts 57°
2026-04-22 17:51 39.72195 3.90109 25214 ft 472 kts 57°
2026-04-22 17:51 39.73857 3.93790 25454 ft 474 kts 57°
2026-04-22 17:52 39.75525 3.97496 25686 ft 475 kts 57°
2026-04-22 17:52 39.77199 4.01218 25906 ft 477 kts 57°
2026-04-22 17:52 39.78875 4.04943 26124 ft 478 kts 57°
2026-04-22 17:52 39.80558 4.08685 26345 ft 480 kts 57°
2026-04-22 17:53 39.82264 4.12422 26534 ft 480 kts 54°
2026-04-22 17:53 39.84297 4.15844 26727 ft 477 kts 44°
2026-04-22 17:53 39.86721 4.18747 26995 ft 472 kts 34°
2026-04-22 17:53 39.89451 4.21055 27297 ft 466 kts 24°
2026-04-22 17:54 39.92399 4.22729 27600 ft 460 kts 15°
2026-04-22 17:54 39.95475 4.23753 27906 ft 455 kts
2026-04-22 17:54 39.98551 4.24461 28203 ft 454 kts
2026-04-22 17:54 40.01659 4.25187 28499 ft 453 kts
2026-04-22 17:55 40.04759 4.25920 28789 ft 452 kts
2026-04-22 17:55 40.07859 4.26660 29073 ft 452 kts
2026-04-22 17:55 40.10944 4.27398 29374 ft 451 kts
2026-04-22 17:55 40.14034 4.28132 29671 ft 450 kts
2026-04-22 17:56 40.17116 4.28863 29969 ft 450 kts
2026-04-22 17:56 40.20193 4.29592 30249 ft 449 kts
2026-04-22 17:56 40.23266 4.30317 30517 ft 448 kts
2026-04-22 17:56 40.26325 4.31037 30776 ft 447 kts
2026-04-22 17:57 40.29384 4.31756 31045 ft 446 kts
2026-04-22 17:57 40.32434 4.32475 31299 ft 445 kts
2026-04-22 17:57 40.35474 4.33197 31557 ft 444 kts
2026-04-22 17:57 40.38505 4.33920 31816 ft 443 kts
2026-04-22 17:58 40.41538 4.34643 32093 ft 442 kts
2026-04-22 17:58 40.44569 4.35366 32353 ft 440 kts
2026-04-22 17:58 40.47580 4.36082 32622 ft 439 kts
2026-04-22 17:58 40.50584 4.36795 32884 ft 439 kts
2026-04-22 17:59 40.53587 4.37507 33132 ft 438 kts
2026-04-22 17:59 40.56581 4.38219 33383 ft 437 kts
2026-04-22 17:59 40.59569 4.38932 33639 ft 436 kts
2026-04-22 17:59 40.62557 4.39649 33886 ft 436 kts
2026-04-22 18:00 40.64525 4.40124 34046 ft 435 kts
2026-04-22 18:00 40.68510 4.41083 34341 ft 434 kts
2026-04-22 18:00 40.71477 4.41795 34547 ft 433 kts
2026-04-22 18:00 40.74449 4.42510 34762 ft 433 kts
2026-04-22 18:01 40.77411 4.43223 34962 ft 432 kts
2026-04-22 18:01 40.83317 4.44640 35060 ft 436 kts
2026-04-22 18:02 40.89288 4.46079 35047 ft 436 kts
2026-04-22 18:02 40.95255 4.47527 35047 ft 436 kts
2026-04-22 18:03 41.01224 4.48974 35054 ft 436 kts
2026-04-22 18:03 41.07192 4.50423 35056 ft 436 kts
2026-04-22 18:04 41.13155 4.51877 35056 ft 435 kts
2026-04-22 18:04 41.19111 4.53330 35059 ft 435 kts
2026-04-22 18:05 41.25062 4.54781 35058 ft 435 kts
2026-04-22 18:05 41.31023 4.56247 35065 ft 435 kts
2026-04-22 18:06 41.36970 4.57698 35089 ft 435 kts
2026-04-22 18:06 41.42913 4.59153 35090 ft 433 kts
2026-04-22 18:07 41.48830 4.60600 35091 ft 432 kts
2026-04-22 18:07 41.54709 4.62052 35089 ft 431 kts
2026-04-22 18:08 41.60611 4.63521 35086 ft 431 kts
2026-04-22 18:08 41.66509 4.64981 35083 ft 431 kts
2026-04-22 18:09 41.72392 4.66485 35092 ft 432 kts 10°
2026-04-22 18:09 41.78049 4.69371 35091 ft 437 kts 18°
2026-04-22 18:10 41.83631 4.72579 35090 ft 437 kts 18°
2026-04-22 18:10 41.89220 4.75793 35099 ft 437 kts 18°
2026-04-22 18:11 41.94802 4.79018 35095 ft 437 kts 18°
2026-04-22 18:11 42.00385 4.82249 35092 ft 437 kts 18°
2026-04-22 18:12 42.05966 4.85484 35095 ft 437 kts 18°
2026-04-22 18:12 42.10606 4.88179 35112 ft 437 kts 18°
2026-04-22 18:13 42.17089 4.91943 35110 ft 436 kts 18°
2026-04-22 18:13 42.22670 4.95192 35105 ft 436 kts 18°
2026-04-22 18:14 42.28245 4.98449 35116 ft 436 kts 18°
2026-04-22 18:14 42.33814 5.01702 35120 ft 436 kts 18°
2026-04-22 18:15 42.39373 5.04957 35111 ft 435 kts 18°
2026-04-22 18:15 42.44796 5.08697 35111 ft 439 kts 24°
2026-04-22 18:16 42.50129 5.12715 35128 ft 439 kts 24°
2026-04-22 18:16 42.55470 5.16739 35123 ft 439 kts 24°
2026-04-22 18:17 42.60811 5.20770 35116 ft 439 kts 24°
2026-04-22 18:17 42.66144 5.24805 35116 ft 439 kts 24°
2026-04-22 18:18 42.71473 5.28846 35114 ft 439 kts 24°
2026-04-22 18:18 42.76774 5.32867 35122 ft 439 kts 24°
2026-04-22 18:19 42.82104 5.36929 35129 ft 439 kts 24°
2026-04-22 18:19 42.87436 5.40999 35127 ft 439 kts 24°
2026-04-22 18:20 42.92766 5.45066 35143 ft 439 kts 24°
2026-04-22 18:20 42.98084 5.49138 35140 ft 438 kts 24°
2026-04-22 18:21 43.03391 5.53221 35135 ft 438 kts 24°
2026-04-22 18:21 43.08663 5.57419 35133 ft 441 kts 30°
2026-04-22 18:22 43.13178 5.63234 35141 ft 451 kts 43°
2026-04-22 18:22 43.17339 5.69665 35140 ft 451 kts 43°
2026-04-22 18:23 43.21511 5.76088 35151 ft 451 kts 42°
2026-04-22 18:23 43.25676 5.82508 35152 ft 450 kts 42°
2026-04-22 18:24 43.31910 5.92168 35164 ft 450 kts 42°
2026-04-22 18:25 43.38576 6.01007 35149 ft 436 kts 25°
2026-04-22 18:25 43.44045 6.04160 35339 ft 421 kts
2026-04-22 18:26 43.52692 6.05395 35134 ft 416 kts 359°
2026-04-22 18:26 43.58454 6.05959 35155 ft 415 kts 359°
2026-04-22 18:27 43.64190 6.06530 35159 ft 415 kts 359°
2026-04-22 18:27 43.69956 6.07109 35159 ft 415 kts 359°
2026-04-22 18:28 43.75705 6.07843 35157 ft 418 kts
2026-04-22 18:28 43.81239 6.10624 35174 ft 429 kts 20°
2026-04-22 18:29 43.86594 6.14277 35183 ft 429 kts 20°
2026-04-22 18:29 43.91055 6.17305 35177 ft 429 kts 19°
2026-04-22 18:30 43.99080 6.22804 35171 ft 429 kts 19°
2026-04-22 18:31 44.04427 6.26470 35163 ft 428 kts 19°
2026-04-22 18:31 44.09775 6.30131 35167 ft 428 kts 19°
2026-04-22 18:32 44.15122 6.33814 35160 ft 428 kts 19°
2026-04-22 18:32 44.20458 6.37501 35157 ft 428 kts 19°
2026-04-22 18:33 44.25787 6.41184 35162 ft 427 kts 19°
2026-04-22 18:33 44.31085 6.44832 35158 ft 428 kts 19°
2026-04-22 18:34 44.36413 6.48521 35168 ft 427 kts 19°
2026-04-22 18:34 44.41734 6.52230 35159 ft 427 kts 19°
2026-04-22 18:35 44.47041 6.55932 35196 ft 425 kts 19°
2026-04-22 18:35 44.52341 6.59634 35184 ft 425 kts 20°
2026-04-22 18:36 44.57626 6.63322 35173 ft 424 kts 19°
2026-04-22 18:36 44.62908 6.67019 35173 ft 424 kts 19°
2026-04-22 18:37 44.68181 6.70727 35200 ft 423 kts 19°
2026-04-22 18:37 44.73423 6.74416 35190 ft 423 kts 20°
2026-04-22 18:38 44.78754 6.77743 35181 ft 413 kts
2026-04-22 18:38 44.84379 6.78753 35195 ft 400 kts 353°
2026-04-22 18:39 44.92682 6.78212 35188 ft 400 kts 353°
2026-04-22 18:39 44.98246 6.77846 35186 ft 400 kts 353°
2026-04-22 18:40 45.03811 6.77479 35202 ft 401 kts 353°
2026-04-22 18:40 45.09375 6.77120 35203 ft 400 kts 353°
2026-04-22 18:41 45.14946 6.76746 35171 ft 400 kts 353°
2026-04-22 18:41 45.20513 6.76365 35198 ft 401 kts 352°
2026-04-22 18:42 45.26086 6.75991 35186 ft 400 kts 352°
2026-04-22 18:42 45.31653 6.75626 35166 ft 400 kts 353°
2026-04-22 18:43 45.37214 6.75257 35167 ft 400 kts 352°
2026-04-22 18:43 45.42772 6.74888 35176 ft 399 kts 352°
2026-04-22 18:44 45.48284 6.74520 35161 ft 398 kts 352°
2026-04-22 18:44 45.53826 6.74132 35162 ft 399 kts 352°
2026-04-22 18:45 45.59374 6.73749 35184 ft 399 kts 352°
2026-04-22 18:45 45.64910 6.73373 35168 ft 398 kts 352°
2026-04-22 18:46 45.70444 6.73003 35160 ft 398 kts 352°
2026-04-22 18:46 45.75971 6.72628 35156 ft 398 kts 352°
2026-04-22 18:47 45.81508 6.72243 35162 ft 398 kts 352°
2026-04-22 18:47 45.87036 6.71857 35157 ft 398 kts 352°
2026-04-22 18:48 45.92572 6.71477 35130 ft 398 kts 352°
2026-04-22 18:48 45.98097 6.71107 35148 ft 397 kts 352°
2026-04-22 18:49 46.03633 6.70734 35149 ft 399 kts 352°
2026-04-22 18:49 46.09179 6.70360 35151 ft 399 kts 352°
2026-04-22 18:50 46.14596 6.69177 35149 ft 391 kts 339°
2026-04-22 18:50 46.19759 6.66655 35170 ft 392 kts 339°
2026-04-22 18:51 46.24930 6.64147 35153 ft 393 kts 339°
2026-04-22 18:51 46.30121 6.61633 35158 ft 394 kts 339°
2026-04-22 18:52 46.35313 6.59103 35162 ft 394 kts 339°
2026-04-22 18:52 46.40478 6.56579 35189 ft 395 kts 339°
2026-04-22 18:53 46.45690 6.54025 35182 ft 395 kts 339°
2026-04-22 18:53 46.50904 6.51466 35187 ft 396 kts 339°
2026-04-22 18:54 46.56124 6.48896 35190 ft 396 kts 339°
2026-04-22 18:54 46.61349 6.46313 35168 ft 396 kts 339°
2026-04-22 18:55 46.66572 6.43736 35184 ft 396 kts 339°
2026-04-22 18:55 46.71792 6.41151 35190 ft 396 kts 339°
2026-04-22 18:56 46.77010 6.38556 35197 ft 396 kts 339°
2026-04-22 18:56 46.82226 6.35968 35215 ft 396 kts 339°
2026-04-22 18:57 46.87447 6.33379 35201 ft 396 kts 339°
2026-04-22 18:57 46.92672 6.30776 35199 ft 397 kts 339°
2026-04-22 18:58 46.97903 6.28163 35202 ft 397 kts 339°
2026-04-22 18:58 47.03135 6.25535 35211 ft 398 kts 339°
2026-04-22 18:59 47.08267 6.22541 35199 ft 397 kts 332°
2026-04-22 18:59 47.13285 6.19247 34510 ft 396 kts 344°
2026-04-22 19:00 47.16000 6.18862 34240 ft 402 kts 358°
2026-04-22 19:00 47.18797 6.19172 34189 ft 404 kts 359°
2026-04-22 19:00 47.24416 6.19886 34204 ft 406 kts
2026-04-22 19:01 47.30039 6.20641 34202 ft 406 kts
2026-04-22 19:01 47.35675 6.21398 34203 ft 406 kts
2026-04-22 19:02 47.41306 6.22147 34207 ft 406 kts
2026-04-22 19:02 47.46949 6.22891 34215 ft 407 kts
2026-04-22 19:03 47.52595 6.23638 34203 ft 408 kts
2026-04-22 19:03 47.58247 6.24403 34198 ft 408 kts
2026-04-22 19:04 47.63865 6.25177 34219 ft 408 kts
2026-04-22 19:04 47.69532 6.25932 34182 ft 410 kts
2026-04-22 19:05 47.75224 6.26695 34169 ft 411 kts
2026-04-22 19:05 47.80934 6.27469 34171 ft 413 kts
2026-04-22 19:06 47.86660 6.28250 34206 ft 414 kts
2026-04-22 19:07 47.95276 6.29413 34201 ft 415 kts
2026-04-22 19:07 48.01038 6.30189 34212 ft 416 kts
2026-04-22 19:08 48.06807 6.30970 34227 ft 417 kts
2026-04-22 19:08 48.12595 6.31769 34219 ft 418 kts
2026-04-22 19:09 48.18397 6.32570 34228 ft 419 kts
2026-04-22 19:09 48.23228 6.33238 34230 ft 420 kts
2026-04-22 19:10 48.30031 6.34170 34240 ft 420 kts
2026-04-22 19:10 48.35862 6.34905 34233 ft 419 kts 357°
2026-04-22 19:11 48.41666 6.34290 34240 ft 418 kts 354°
2026-04-22 19:11 48.47469 6.33588 34240 ft 419 kts 353°
2026-04-22 19:12 48.53281 6.32877 34256 ft 419 kts 354°
2026-04-22 19:12 48.59096 6.32167 34258 ft 420 kts 354°
2026-04-22 19:13 48.64924 6.31457 34259 ft 420 kts 354°
2026-04-22 19:13 48.70760 6.30777 34260 ft 420 kts 354°
2026-04-22 19:14 48.76550 6.30148 34261 ft 420 kts 354°
2026-04-22 19:14 48.82386 6.29515 34263 ft 420 kts 354°
2026-04-22 19:15 48.87272 6.28978 34264 ft 421 kts 354°
2026-04-22 19:15 48.94062 6.28225 34266 ft 421 kts 355°
2026-04-22 19:16 48.99917 6.27573 34267 ft 422 kts 354°
2026-04-22 19:16 49.04826 6.27020 34266 ft 422 kts 355°
2026-04-22 19:17 49.10693 6.26351 34267 ft 423 kts 354°
2026-04-22 19:17 49.16521 6.25688 34269 ft 423 kts 355°
2026-04-22 19:18 49.22410 6.25034 34277 ft 425 kts 355°
2026-04-22 19:18 49.28292 6.25460 34276 ft 427 kts 12°
2026-04-22 19:19 49.34062 6.27694 34277 ft 428 kts 12°
2026-04-22 19:19 49.36953 6.28821 34070 ft 431 kts 13°
2026-04-22 19:19 49.39851 6.29961 33510 ft 430 kts 13°
2026-04-22 19:19 49.42756 6.31104 32990 ft 431 kts 13°
2026-04-22 19:20 49.45671 6.32249 32453 ft 433 kts 13°
2026-04-22 19:20 49.48591 6.33396 31936 ft 430 kts 13°
2026-04-22 19:20 49.51482 6.34518 31427 ft 426 kts 13°
2026-04-22 19:20 49.54350 6.35590 30931 ft 422 kts 13°
2026-04-22 19:21 49.57189 6.36628 30434 ft 417 kts 13°
2026-04-22 19:21 49.59969 6.37637 29874 ft 413 kts 13°
2026-04-22 19:21 49.62750 6.38649 29303 ft 409 kts 13°
2026-04-22 19:21 49.65506 6.39658 28743 ft 405 kts 13°
2026-04-22 19:22 49.68237 6.40665 28196 ft 402 kts 13°
2026-04-22 19:22 49.70948 6.41667 27658 ft 399 kts 14°
2026-04-22 19:22 49.73640 6.42666 27129 ft 395 kts 14°
2026-04-22 19:22 49.76302 6.43655 26616 ft 392 kts 14°
2026-04-22 19:23 49.78954 6.44646 26096 ft 390 kts 14°
2026-04-22 19:23 49.81588 6.45632 25645 ft 388 kts 14°
2026-04-22 19:23 49.84214 6.46612 25406 ft 388 kts 14°
2026-04-22 19:23 49.86840 6.47589 25283 ft 387 kts 14°
2026-04-22 19:24 49.89462 6.48572 25305 ft 388 kts 14°
2026-04-22 19:24 49.92082 6.49558 25309 ft 388 kts 14°
2026-04-22 19:24 49.94676 6.50534 25309 ft 388 kts 14°
2026-04-22 19:24 49.97301 6.51528 25315 ft 388 kts 14°
2026-04-22 19:25 49.99925 6.52520 25315 ft 388 kts 14°
2026-04-22 19:25 50.02542 6.53501 25312 ft 388 kts 14°
2026-04-22 19:25 50.05169 6.54484 25315 ft 388 kts 14°
2026-04-22 19:25 50.07795 6.55469 25254 ft 387 kts 15°
2026-04-22 19:26 50.10400 6.56451 24696 ft 383 kts 15°
2026-04-22 19:26 50.12979 6.57429 24142 ft 380 kts 15°
2026-04-22 19:26 50.15544 6.58400 23566 ft 378 kts 15°
2026-04-22 19:26 50.18095 6.59367 22976 ft 375 kts 15°
2026-04-22 19:27 50.20618 6.60324 22436 ft 372 kts 15°
2026-04-22 19:27 50.23127 6.61275 21917 ft 369 kts 15°
2026-04-22 19:27 50.25611 6.62216 21410 ft 366 kts 15°
2026-04-22 19:27 50.28080 6.63150 20912 ft 364 kts 15°
2026-04-22 19:28 50.30521 6.64078 20285 ft 359 kts 15°
2026-04-22 19:28 50.32939 6.65004 19638 ft 356 kts 15°
2026-04-22 19:28 50.35337 6.65923 19014 ft 353 kts 15°
2026-04-22 19:28 50.37709 6.66828 18373 ft 350 kts 15°
2026-04-22 19:29 50.40064 6.67723 17682 ft 346 kts 15°
2026-04-22 19:29 50.42397 6.68615 17014 ft 344 kts 16°
2026-04-22 19:29 50.44711 6.69504 16357 ft 341 kts 16°
2026-04-22 19:29 50.47013 6.70390 15983 ft 341 kts 15°
2026-04-22 19:30 50.48540 6.70978 15748 ft 340 kts 15°
2026-04-22 19:30 50.51615 6.72114 15283 ft 339 kts 14°
2026-04-22 19:30 50.53912 6.72916 14938 ft 337 kts 14°
2026-04-22 19:30 50.56201 6.73697 14596 ft 336 kts 14°
2026-04-22 19:31 50.58486 6.74474 14347 ft 335 kts 14°
2026-04-22 19:31 50.60760 6.75249 14335 ft 335 kts 14°
2026-04-22 19:31 50.63027 6.76025 14002 ft 332 kts 14°
2026-04-22 19:31 50.65281 6.76797 13485 ft 330 kts 14°
2026-04-22 19:32 50.67525 6.77564 12966 ft 329 kts 14°
2026-04-22 19:32 50.69753 6.78329 12472 ft 327 kts 14°
2026-04-22 19:32 50.71970 6.79104 11975 ft 325 kts 14°
2026-04-22 19:32 50.74171 6.79875 11470 ft 323 kts 14°
2026-04-22 19:33 50.76365 6.80645 10970 ft 322 kts 14°
2026-04-22 19:33 50.78513 6.81400 10613 ft 315 kts 14°
2026-04-22 19:33 50.80600 6.82128 10485 ft 294 kts 14°
2026-04-22 19:33 50.82560 6.82806 10348 ft 282 kts 14°
2026-04-22 19:34 50.84487 6.83153 10082 ft 279 kts 356°
2026-04-22 19:34 50.86315 6.82255 9721 ft 282 kts 336°
2026-04-22 19:34 50.88047 6.80789 9303 ft 282 kts 334°
2026-04-22 19:34 50.89779 6.79252 8902 ft 281 kts 333°
2026-04-22 19:35 50.91480 6.77740 8505 ft 280 kts 333°
2026-04-22 19:35 50.93167 6.76244 7993 ft 276 kts 333°
2026-04-22 19:35 50.94859 6.74821 7380 ft 273 kts 341°
2026-04-22 19:35 50.96666 6.74402 6838 ft 264 kts
2026-04-22 19:36 50.98353 6.75387 6242 ft 260 kts 38°
2026-04-22 19:36 50.99609 6.77423 5730 ft 259 kts 52°
2026-04-22 19:36 51.00717 6.79662 5338 ft 253 kts 53°
2026-04-22 19:36 51.01760 6.81805 5173 ft 236 kts 53°
2026-04-22 19:37 51.02528 6.84013 4849 ft 226 kts 78°
2026-04-22 19:37 51.02455 6.86453 4501 ft 223 kts 107°
2026-04-22 19:37 51.01900 6.88752 4133 ft 223 kts 112°
2026-04-22 19:37 51.01278 6.91007 3794 ft 222 kts 113°
2026-04-22 19:38 51.00664 6.93200 3640 ft 213 kts 113°
2026-04-22 19:38 51.00044 6.95278 3456 ft 207 kts 123°
2026-04-22 19:38 50.99054 6.96915 3198 ft 205 kts 136°
2026-04-22 19:38 50.97998 6.98428 2922 ft 204 kts 136°
2026-04-22 19:39 50.96969 6.99920 2642 ft 196 kts 135°
2026-04-22 19:39 50.95995 7.01336 2412 ft 185 kts 134°
2026-04-22 19:39 50.95067 7.02688 2143 ft 177 kts 133°
2026-04-22 19:39 50.94171 7.03995 1892 ft 173 kts 133°
2026-04-22 19:40 50.93311 7.05245 1690 ft 162 kts 133°
2026-04-22 19:40 50.92489 7.06443 1451 ft 159 kts 133°
2026-04-22 19:40 50.91693 7.07603 1240 ft 152 kts 134°
2026-04-22 19:40 50.90937 7.08700 1029 ft 145 kts 134°
2026-04-22 19:41 50.90204 7.09767 840 ft 142 kts 134°
2026-04-22 19:41 50.89482 7.10816 664 ft 140 kts 134°
2026-04-22 19:41 50.88765 7.11859 473 ft 140 kts 134°
2026-04-22 19:41 50.88048 7.12901 297 ft 139 kts 134°
2026-04-22 19:42 50.87375 7.13881 242 ft 114 kts 137°
2026-04-22 19:42 50.86918 7.14551 260 ft 72 kts 137°
2026-04-22 19:42 50.86589 7.15026 276 ft 57 kts 137°
2026-04-22 19:42 50.86309 7.15305 289 ft 32 kts 163°
2026-04-22 19:43 50.86162 7.15354 290 ft 0 kts 170°
2026-04-22 19:43 50.86161 7.15354 292 ft 1 kts 170°
2026-04-22 19:43 50.86131 7.15358 290 ft 8 kts 180°
2026-04-22 19:44 50.86064 7.15301 293 ft 15 kts 230°
2026-04-22 19:44 50.86058 7.15126 289 ft 18 kts 306°
2026-04-22 19:44 50.86154 7.14976 285 ft 20 kts 318°
2026-04-22 19:44 50.86265 7.14815 280 ft 21 kts 317°
2026-04-22 19:45 50.86372 7.14661 274 ft 18 kts 317°
2026-04-22 19:45 50.86464 7.14527 268 ft 16 kts 317°
2026-04-22 19:45 50.86518 7.14449 265 ft 7 kts 317°
2026-04-22 19:45 50.86520 7.14446 265 ft 0 kts 317°
2026-04-22 19:48 50.86521 7.14444 265 ft 1 kts 317°
2026-04-22 19:48 50.86535 7.14425 264 ft 4 kts 317°
2026-04-22 19:48 50.86586 7.14350 262 ft 15 kts 317°
2026-04-22 19:49 50.86668 7.14231 260 ft 16 kts 317°
2026-04-22 19:49 50.86766 7.14128 255 ft 18 kts 344°
2026-04-22 19:49 50.86862 7.14012 255 ft 17 kts 317°
2026-04-22 19:49 50.86937 7.13903 249 ft 11 kts 317°
2026-04-22 19:50 50.87003 7.13807 243 ft 13 kts 317°
2026-04-22 19:50 50.87073 7.13706 241 ft 14 kts 317°
2026-04-22 19:50 50.87152 7.13592 238 ft 17 kts 317°
2026-04-22 19:50 50.87245 7.13459 234 ft 20 kts 318°
2026-04-22 19:51 50.87338 7.13323 232 ft 18 kts 318°
2026-04-22 19:51 50.87433 7.13185 232 ft 18 kts 317°
2026-04-22 19:51 50.87523 7.13055 232 ft 17 kts 317°
2026-04-22 19:51 50.87590 7.12958 232 ft 10 kts 317°
2026-04-22 19:52 50.87621 7.12913 232 ft 4 kts 317°
2026-04-22 19:52 50.87633 7.12895 232 ft 1 kts 317°
2026-04-22 19:52 50.87637 7.12890 232 ft 0 kts 317°
2026-04-22 19:52 50.87638 7.12888 232 ft 0 kts 317°
2026-04-22 19:53 50.87654 7.12865 232 ft 6 kts 317°
2026-04-22 19:53 50.87675 7.12833 232 ft 5 kts 317°
2026-04-22 19:53 50.87711 7.12780 232 ft 8 kts 317°
2026-04-22 19:54 50.87761 7.12703 232 ft 9 kts 307°
2026-04-22 19:54 50.87778 7.12626 234 ft 6 kts 289°
2026-04-22 19:54 50.87779 7.12568 232 ft 5 kts 265°
2026-04-22 19:54 50.87782 7.12519 232 ft 5 kts 283°
2026-04-22 19:55 50.87792 7.12471 234 ft 4 kts 289°
2026-04-22 19:55 50.87801 7.12432 232 ft 3 kts 288°
2026-04-22 19:55 50.87803 7.12417 234 ft 0 kts 288°